Regional Weather Roundup
Issued by NWS

Home | Current Version | Previous Version | Text Only | Print | Product List | Glossary Off
Versions: 1 2 3 4 5 6 7 8 9 10 11 12 13 14 15 16 17 18 19 20 21 22 23 24 25 26 27 28 29 30 31 32 33 34 35 36 37 38 39 40 41 42 43 44 45 46 47 48 49 50

000
ASUS43 KIND 261509
RWRIN

WEATHER ROUNDUP FOR INDIANA
NATIONAL WEATHER SERVICE INDIANAPOLIS IN
1100 AM EDT TUE JUL 26 2016

NOTE: "FAIR" INDICATES FEW OR NO CLOUDS BELOW 12,000 FEET WITH NO
SIGNIFICANT WEATHER AND/OR OBSTRUCTIONS TO VISIBILITY.

* - STATION DOES NOT REPORT WEATHER SUCH AS PRECIPITATION OR FOG.

+ - STATION NOT QUALITY CONTROLLED BY THE NATIONAL WEATHER SERVICE.
    USE DATA WITH CAUTION...ESPECIALLY DEWPOINT AND RELATIVE
    HUMIDITY OBSERVATIONS.

INZ001>003-010>013-019-020-261600-
NORTHWEST INDIANA

CITY           SKY/WX    TMP DP  RH WIND       PRES   REMARKS
GARY /AIRPORT/ MOSUNNY   81  70  69 VRB5      30.08R
KNOX *+        MOSUNNY   79  55  44 E6        30.07S
LA PORTE +     SUNNY     81  66  60 CALM      30.09S
MICHIGAN CITY+ SUNNY     81  64  57 E3        30.08S
MONTICELLO +   MOSUNNY   76  63  64 E5        30.06F
RENSSELAER +   SUNNY     79  68  69 SE7       30.08S
VALPARAISO     SUNNY     80  65  59 E6        30.08S

$$

LMZ046-743>745-261600-
SOUTHERN LAKE MICHIGAN

STATION/POSITION TIME  TEMP    WIND        PRES    WAVE
                       AIR SEA DIR/SP/G            HT
                 (UTC) (F)     (DEG/KT/KT) (MB)    (FT)
BURNS HARBOR     1500   75     360/  4/  6 1018.6S
MICHIGAN CITY    1400   75      20/  5/  5   N/A
5NW MICH CITY    1500   76 76   30/  4/  4   N/A     0

$$

INZ004-005-014>016-021>024-261600-
NORTH CENTRAL INDIANA

CITY           SKY/WX    TMP DP  RH WIND       PRES   REMARKS
ELKHART        SUNNY     79  68  69 E8        30.09R
GOSHEN         SUNNY     80  62  54 E6        30.08S
LOGANSPORT +   CLOUDY    77  64  65 E8        30.08F
PERU/GRISSOM   CLOUDY    78  65  63 E6        30.07R
ROCHESTER +    SUNNY     81  66  61 E7        30.09R
SOUTH BEND     SUNNY     80  63  55 CALM      30.08S
WARSAW +       SUNNY     77  64  65 E6        30.08S

$$

INZ006>009-017-018-025>027-261600-
NORTHEAST INDIANA

CITY           SKY/WX    TMP DP  RH WIND       PRES   REMARKS
ANGOLA *+        N/A     79  72  78 E6        30.08S
AUBURN +       SUNNY     81  59  47 E3        30.09R
FORT WAYNE     PTSUNNY   79  62  56 SE6       30.08S
HUNTINGTON +   MOSUNNY   77  67  70 E5        30.07F

$$

INZ028-029-035-036-043>045-051>053-261600-
WEST CENTRAL INDIANA

CITY           SKY/WX    TMP DP  RH WIND       PRES   REMARKS
CRAWFORDSVL +  LGT RAIN  71  71 100 SE3       30.08S
GREENCASTLE +  RAIN      72  70  94 CALM      30.09R
LAFAYETTE      CLOUDY    76  67  73 E7        30.06S
TERRE HAUTE    TSTM      71  68  90 CALM      30.06F FOG

$$

INZ030>032-037>040-046>048-054>057-064-065-261600-
CENTRAL INDIANA

CITY           SKY/WX    TMP DP  RH WIND       PRES   REMARKS
ANDERSON       SUNNY     77  66  69 NE6       30.08R
COLUMBUS       LGT RAIN  72  72 100 CALM      30.06R FOG
INDIANAPOLIS   CLOUDY    80  63  55 E8        30.07R
-EAGLE CREEK   CLOUDY    78  65  63 NE3       30.06S
KOKOMO *+      MOSUNNY   77  63  61 E8        30.08S
MARION +       CLOUDY    78  64  62 E5        30.08F
MT COMFORT *+  PTSUNNY   77  66  69 CALM      30.07S
SHELBYVILLE    CLOUDY    79  67  66 VRB3      30.06S
ZIONSVILLE +   CLOUDY    73  66  79 NE3       30.08S

$$

INZ033-034-041-042-049-050-058-059-261600-
EAST CENTRAL INDIANA

CITY           SKY/WX    TMP DP  RH WIND       PRES   REMARKS
MUNCIE         PTSUNNY   79  66  64 CALM      30.08R

$$

INZ060-061-067>069-081>083-085>088-261600-
SOUTHWEST INDIANA

CITY           SKY/WX    TMP DP  RH WIND       PRES   REMARKS
EVANSVILLE     PTSUNNY   82  74  76 CALM      30.03S
HUNTINGBURG *+ CLOUDY    81  73  78 SW6       30.03S
WASHINGTON +   CLOUDY    75  74  95 MISG      30.04R

$$

INZ062-063-066-070>080-084-089>092-261600-
SOUTH CENTRAL AND SOUTHEAST INDIANA

CITY           SKY/WX    TMP DP  RH WIND       PRES   REMARKS
BLOOMINGTON    LGT RAIN  74  70  87 NE3       30.06S
MADISON *+     CLOUDY    79  73  83 CALM      30.07S

$$





USA.gov is the U.S. government's official web portal to all federal, state and local government web resources and services.